This is the latest recevied weather packets stored in our database for station/object W4TJP. If no packets are shown the sender has not sent any weather packets the latest 10 day(s).
| Time | Temp. | Humidity | Pressure | Rain* | Wind** | Luminosity | Snow |
|---|---|---|---|---|---|---|---|
| 1777854337 | 10.56° C | 68% | 1015.7 hPa | 0 mm | - | 1 W/m² | - |
| 1777854035 | 11.11° C | 67% | 1015.6 hPa | 0 mm | - | 3 W/m² | - |
| 1777853732 | 11.67° C | 64% | 1015.6 hPa | 0 mm | - | 4 W/m² | - |
| 1777853428 | 11.67° C | 63% | 1015.7 hPa | 0 mm | - | 6 W/m² | - |
| 1777853125 | 12.22° C | 60% | 1016 hPa | 0 mm | - | 9 W/m² | - |
| 1777852823 | 12.22° C | 61% | 1016.1 hPa | 0 mm | - | 9 W/m² | - |
| 1777852521 | 12.22° C | 58% | 1016 hPa | 0 mm | - | 12 W/m² | - |
| 1777852218 | 12.78° C | 58% | 1016.4 hPa | 0 mm | - | 12 W/m² | - |
| 1777851915 | 12.78° C | 60% | 1016.1 hPa | 0 mm | - | 14 W/m² | - |
| 1777851614 | 13.33° C | 61% | 1016.1 hPa | 0 mm | - | 16 W/m² | - |
| 1777851309 | 13.33° C | 60% | 1016.2 hPa | 0 mm | - | 17 W/m² | - |
| 1777851006 | 13.89° C | 61% | 1016.1 hPa | 0 mm | - | 18 W/m² | - |
| 1777850703 | 13.89° C | 51% | 1016.1 hPa | 0 mm | - | 19 W/m² | - |
| 1777850400 | 14.44° C | 53% | 1016.1 hPa | 0 mm | - | 21 W/m² | - |
| 1777850098 | 14.44° C | 50% | 1016.1 hPa | 0 mm | - | 22 W/m² | - |
| 1777849794 | 14.44° C | 52% | 1016.2 hPa | 0 mm | - | 23 W/m² | - |
| 1777849491 | 14.44° C | 51% | 1016.2 hPa | 0 mm | - | 24 W/m² | - |
| 1777849188 | 14.44° C | 50% | 1016.4 hPa | 0 mm | - | 24 W/m² | - |
| 1777848885 | 15° C | 52% | 1016.5 hPa | 0 mm | - | 25 W/m² | - |
| 1777848581 | 15° C | 53% | 1016.4 hPa | 0 mm | - | 28 W/m² | - |
| 1777848278 | 15° C | 49% | 1016.8 hPa | 0 mm | - | 28 W/m² | - |
| 1777847975 | 15.56° C | 50% | 1016.6 hPa | 0 mm | - | 37 W/m² | - |
| 1777847673 | 15.56° C | 47% | 1016.6 hPa | 0 mm | - | 112 W/m² | - |
| 1777847368 | 15° C | 52% | 1016.9 hPa | 0 mm | - | 103 W/m² | - |
| 1777847067 | 15.56° C | 54% | 1016.8 hPa | 0 mm | - | 42 W/m² | - |
* Rain latest hour (hover to see other rain measurements)
** Current wind speed in m/s (hover to see current wind gust speed)